| time (UTC) | temp C | wind direction | speed KPH | gust KPH | rain 1hr cm | rain 24hr cm | rain mn cm | humidity % | barometer mb |
| 20260505040238 | 15 | 339 | 12.9 | 19.3 | 0.00 | 0.00 | 0.00 | 82 | 1011.3 |
| 20260505035735 | 15 | 20 | 8.0 | 14.5 | 0.00 | 0.00 | 0.00 | 82 | 1011.2 |
| 20260505035231 | 15 | 350 | 6.4 | 9.7 | 0.00 | 0.00 | 0.00 | 81 | 1011.1 |
| 20260505034728 | 15 | 31 | 3.2 | 8.0 | 0.00 | 0.00 | 0.00 | 81 | 1011.0 |
| 20260505034224 | 15 | 45 | 1.6 | 9.7 | 0.00 | 0.00 | 0.00 | 80 | 1010.9 |
| 20260505033721 | 15 | 50 | 4.8 | 22.5 | 0.00 | 0.00 | 0.00 | 79 | 1010.7 |
| 20260505033219 | 16 | 45 | 4.8 | 14.5 | 0.00 | 0.00 | 0.00 | 79 | 1010.6 |
| 20260505032717 | 16 | 93 | 3.2 | 9.7 | 0.00 | 0.00 | 0.00 | 78 | 1010.5 |
| 20260505032212 | 16 | 105 | 0.0 | 3.2 | 0.00 | 0.00 | 0.00 | 78 | 1010.4 |
| 20260505031710 | 16 | 348 | 4.8 | 12.9 | 0.00 | 0.00 | 0.00 | 77 | 1010.4 |
| 20260505031206 | 16 | 31 | 3.2 | 12.9 | 0.00 | 0.00 | 0.00 | 76 | 1010.2 |
| 20260505030703 | 17 | 40 | 4.8 | 19.3 | 0.00 | 0.00 | 0.00 | 76 | 1010.5 |
| 20260505030159 | 17 | 15 | 8.0 | 9.7 | 0.00 | 0.00 | 0.00 | 76 | 1010.1 |
| 20260505025655 | 17 | 25 | 8.0 | 17.7 | 0.00 | 0.00 | 0.00 | 75 | 1010.3 |
| 20260505025154 | 17 | 7 | 6.4 | 9.7 | 0.00 | 0.00 | 0.00 | 74 | 1010.0 |
| 20260505024651 | 17 | 16 | 12.9 | 17.7 | 0.00 | 0.00 | 0.00 | 74 | 1010.0 |
| 20260505024148 | 18 | 4 | 8.0 | 12.9 | 0.00 | 0.00 | 0.00 | 74 | 1010.0 |
| 20260505023646 | 18 | 326 | 8.0 | 12.9 | 0.00 | 0.00 | 0.00 | 73 | 1010.0 |
| 20260505023143 | 18 | 307 | 6.4 | 14.5 | 0.00 | 0.00 | 0.00 | 72 | 1009.7 |
| 20260505022640 | 18 | 355 | 9.7 | 17.7 | 0.00 | 0.00 | 0.00 | 72 | 1009.7 |
| 20260505022137 | 18 | 340 | 11.3 | 14.5 | 0.00 | 0.00 | 0.00 | 71 | 1009.6 |
| 20260505021634 | 18 | 10 | 9.7 | 22.5 | 0.00 | 0.00 | 0.00 | 70 | 1009.7 |
| 20260505021130 | 19 | 338 | 4.8 | 22.5 | 0.00 | 0.00 | 0.00 | 70 | 1009.8 |
| 20260505020626 | 19 | 25 | 9.7 | 12.9 | 0.00 | 0.00 | 0.00 | 69 | 1009.8 |
| 20260505020122 | 20 | 359 | 16.1 | 19.3 | 0.00 | 0.00 | 0.00 | 68 | 1009.5 |
| 20260505015620 | 20 | 336 | 11.3 | 19.3 | 0.00 | 0.00 | 0.00 | 68 | 1009.7 |
| 20260505015116 | 20 | 353 | 8.0 | 9.7 | 0.00 | 0.00 | 0.00 | 68 | 1009.8 |
| 20260505014613 | 20 | 42 | 4.8 | 9.7 | 0.00 | 0.00 | 0.00 | 67 | 1009.8 |
| 20260505014110 | 20 | 348 | 3.2 | 4.8 | 0.00 | 0.00 | 0.00 | 68 | 1009.6 |
| 20260505013607 | 20 | 330 | 12.9 | 14.5 | 0.00 | 0.00 | 0.00 | 67 | 1009.6 |
| 20260505013104 | 21 | 57 | 0.0 | 12.9 | 0.00 | 0.00 | 0.00 | 67 | 1009.6 |
| 20260505012602 | 21 | 314 | 11.3 | 14.5 | 0.00 | 0.00 | 0.00 | 65 | 1009.7 |
| 20260505012059 | 21 | 341 | 11.3 | 14.5 | 0.00 | 0.00 | 0.00 | 65 | 1009.8 |
| 20260505011554 | 21 | 3 | 9.7 | 14.5 | 0.00 | 0.00 | 0.00 | 65 | 1009.7 |
| 20260505011052 | 21 | 38 | 4.8 | 4.8 | 0.00 | 0.00 | 0.00 | 65 | 1009.6 |
| 20260505010547 | 21 | 334 | 9.7 | 12.9 | 0.00 | 0.00 | 0.00 | 64 | 1009.5 |
| 20260505010044 | 22 | 41 | 3.2 | 8.0 | 0.00 | 0.00 | 0.00 | 64 | 1009.7 |
| 20260505005540 | 22 | 33 | 6.4 | 12.9 | 0.00 | 0.00 | 0.00 | 65 | 1009.5 |
| 20260505005038 | 22 | 9 | 0.0 | 3.2 | 0.00 | 0.00 | 0.00 | 68 | 1009.8 |
| 20260505004535 | 22 | 129 | 4.8 | 4.8 | 0.00 | 0.00 | 0.00 | 68 | 1009.8 |
| 20260505004032 | 22 | 347 | 6.4 | 8.0 | 0.00 | 0.00 | 0.00 | 68 | 1009.6 |
| 20260505003529 | 22 | 80 | 3.2 | 4.8 | 0.00 | 0.00 | 0.00 | 68 | 1009.8 |
| 20260505003026 | 22 | 81 | 0.0 | 0.0 | 0.00 | 0.00 | 0.00 | 66 | 1009.6 |
| 20260505002521 | 22 | 80 | 3.2 | 9.7 | 0.00 | 0.00 | 0.00 | 67 | 1009.8 |
| 20260505002020 | 22 | 74 | 1.6 | 4.8 | 0.00 | 0.00 | 0.00 | 66 | 1009.9 |
| 20260505001517 | 22 | 123 | 1.6 | 4.8 | 0.00 | 0.00 | 0.00 | 67 | 1009.7 |
| 20260505001014 | 22 | 148 | 4.8 | 8.0 | 0.00 | 0.00 | 0.00 | 68 | 1009.9 |
| 20260505000512 | 22 | 152 | 8.0 | 14.5 | 0.00 | 0.00 | 0.00 | 67 | 1010.1 |
| 20260505000009 | 22 | 110 | 3.2 | 8.0 | 0.00 | 0.00 | 0.00 | 67 | 1009.9 |
| 20260504235506 | 22 | 139 | 6.4 | 8.0 | 0.00 | 0.00 | 0.00 | 67 | 1009.9 |
| 20260504235002 | 22 | 117 | 1.6 | 8.0 | 0.00 | 0.00 | 0.00 | 67 | 1009.8 |
| 20260504234459 | 22 | 97 | 4.8 | 8.0 | 0.00 | 0.00 | 0.00 | 67 | 1009.9 |
| 20260504233956 | 22 | 125 | 4.8 | 9.7 | 0.00 | 0.00 | 0.00 | 69 | 1009.9 |
| 20260504233451 | 22 | 141 | 9.7 | 14.5 | 0.00 | 0.00 | 0.00 | 68 | 1010.0 |
| 20260504232949 | 22 | 151 | 4.8 | 8.0 | 0.00 | 0.00 | 0.00 | 67 | 1009.8 |
| 20260504232446 | 22 | 149 | 4.8 | 4.8 | 0.00 | 0.00 | 0.00 | 67 | 1009.9 |
| 20260504231943 | 22 | 90 | 1.6 | 4.8 | 0.00 | 0.00 | 0.00 | 66 | 1009.7 |
| 20260504231439 | 22 | 121 | 4.8 | 9.7 | 0.00 | 0.00 | 0.00 | 66 | 1010.1 |
| 20260504230935 | 22 | 119 | 4.8 | 9.7 | 0.00 | 0.00 | 0.00 | 67 | 1009.8 |
| 20260504230432 | 22 | 135 | 3.2 | 3.2 | 0.00 | 0.00 | 0.00 | 67 | 1010.1 |
| 20260504225932 | 22 | 128 | 3.2 | 9.7 | 0.00 | 0.00 | 0.00 | 67 | 1010.1 |
| 20260504225428 | 22 | 94 | 4.8 | 9.7 | 0.00 | 0.00 | 0.00 | 66 | 1010.0 |
| 20260504224925 | 22 | 178 | 8.0 | 14.5 | 0.00 | 0.00 | 0.00 | 68 | 1009.9 |
| 20260504224421 | 22 | 147 | 3.2 | 8.0 | 0.00 | 0.00 | 0.00 | 68 | 1010.0 |
| 20260504223919 | 21 | 153 | 8.0 | 14.5 | 0.00 | 0.00 | 0.00 | 68 | 1010.1 |
| 20260504223414 | 22 | 115 | 6.4 | 9.7 | 0.00 | 0.00 | 0.00 | 67 | 1010.5 |
| 20260504222910 | 22 | 158 | 4.8 | 9.7 | 0.00 | 0.00 | 0.00 | 68 | 1010.3 |
| 20260504222408 | 22 | 136 | 8.0 | 8.0 | 0.00 | 0.00 | 0.00 | 69 | 1010.6 |
| 20260504221906 | 22 | 102 | 0.0 | 3.2 | 0.00 | 0.00 | 0.00 | 70 | 1010.3 |
| 20260504221402 | 21 | 110 | 6.4 | 12.9 | 0.00 | 0.00 | 0.00 | 68 | 1010.7 |
| 20260504220859 | 21 | 114 | 9.7 | 12.9 | 0.00 | 0.00 | 0.00 | 69 | 1010.9 |
| 20260504220356 | 21 | 118 | 0.0 | 14.5 | 0.00 | 0.00 | 0.00 | 69 | 1010.6 |
| 20260504215853 | 21 | 125 | 3.2 | 8.0 | 0.00 | 0.00 | 0.00 | 67 | 1010.7 |
| 20260504215349 | 21 | 81 | 3.2 | 8.0 | 0.00 | 0.00 | 0.00 | 67 | 1010.8 |
| 20260504214846 | 21 | 152 | 4.8 | 8.0 | 0.00 | 0.00 | 0.00 | 68 | 1010.7 |
| 20260504214343 | 22 | 119 | 3.2 | 9.7 | 0.00 | 0.00 | 0.00 | 70 | 1010.8 |
| 20260504213840 | 21 | 133 | 9.7 | 14.5 | 0.00 | 0.00 | 0.00 | 67 | 1010.9 |
| 20260504213335 | 21 | 103 | 3.2 | 8.0 | 0.00 | 0.00 | 0.00 | 69 | 1010.9 |
| 20260504212833 | 21 | 159 | 3.2 | 4.8 | 0.00 | 0.00 | 0.00 | 68 | 1011.1 |
| 20260504212329 | 21 | 111 | 6.4 | 9.7 | 0.00 | 0.00 | 0.00 | 68 | 1011.1 |
| 20260504211827 | 21 | 184 | 11.3 | 12.9 | 0.00 | 0.00 | 0.00 | 69 | 1011.3 |
| 20260504211322 | 21 | 91 | 1.6 | 8.0 | 0.00 | 0.00 | 0.00 | 68 | 1011.2 |
| 20260504210820 | 21 | 76 | 4.8 | 14.5 | 0.00 | 0.00 | 0.00 | 69 | 1011.3 |
| 20260504210317 | 21 | 112 | 4.8 | 17.7 | 0.00 | 0.00 | 0.00 | 69 | 1011.3 |
| 20260504205814 | 21 | 71 | 3.2 | 8.0 | 0.00 | 0.00 | 0.00 | 68 | 1011.6 |
| 20260504205312 | 20 | 153 | 8.0 | 12.9 | 0.00 | 0.00 | 0.00 | 70 | 1011.6 |
| 20260504204810 | 20 | 81 | 0.0 | 4.8 | 0.00 | 0.00 | 0.00 | 69 | 1011.7 |
| 20260504204308 | 20 | 133 | 4.8 | 8.0 | 0.00 | 0.00 | 0.00 | 70 | 1011.6 |
| 20260504203807 | 21 | 146 | 11.3 | 12.9 | 0.00 | 0.00 | 0.00 | 69 | 1011.6 |
| 20260504203304 | 20 | 65 | 3.2 | 12.9 | 0.00 | 0.00 | 0.00 | 69 | 1011.6 |
| 20260504202758 | 20 | 158 | 4.8 | 8.0 | 0.00 | 0.00 | 0.00 | 68 | 1011.6 |
| 20260504202256 | 20 | 74 | 1.6 | 12.9 | 0.00 | 0.00 | 0.00 | 69 | 1012.0 |
| 20260504201753 | 20 | 81 | 1.6 | 14.5 | 0.00 | 0.00 | 0.00 | 72 | 1011.9 |
| 20260504201250 | 20 | 151 | 4.8 | 9.7 | 0.00 | 0.00 | 0.00 | 71 | 1012.0 |
| 20260504200748 | 20 | 174 | 6.4 | 9.7 | 0.00 | 0.00 | 0.00 | 70 | 1011.9 |
| 20260504200243 | 20 | 147 | 9.7 | 14.5 | 0.00 | 0.00 | 0.00 | 72 | 1011.9 |
| 20260504195740 | 20 | 94 | 4.8 | 9.7 | 0.00 | 0.00 | 0.00 | 70 | 1011.8 |
| 20260504195236 | 20 | 115 | 8.0 | 12.9 | 0.00 | 0.00 | 0.00 | 73 | 1012.0 |
| 20260504194733 | 19 | 76 | 3.2 | 8.0 | 0.00 | 0.00 | 0.00 | 71 | 1012.1 |
| 20260504194229 | 20 | 94 | 4.8 | 17.7 | 0.00 | 0.00 | 0.00 | 71 | 1012.3 |
| 20260504193726 | 20 | 120 | 3.2 | 14.5 | 0.00 | 0.00 | 0.00 | 71 | 1012.1 |
| 20260504193223 | 20 | 93 | 4.8 | 8.0 | 0.00 | 0.00 | 0.00 | 71 | 1012.0 |
| 20260504192722 | 20 | 100 | 4.8 | 8.0 | 0.00 | 0.00 | 0.00 | 70 | 1012.2 |
| 20260504192219 | 19 | 78 | 3.2 | 9.7 | 0.00 | 0.00 | 0.00 | 71 | 1012.0 |
| 20260504191718 | 20 | 103 | 6.4 | 14.5 | 0.00 | 0.00 | 0.00 | 75 | 1012.2 |
| 20260504191214 | 19 | 161 | 8.0 | 12.9 | 0.00 | 0.00 | 0.00 | 71 | 1012.4 |
| 20260504190709 | 19 | 72 | 0.0 | 8.0 | 0.00 | 0.00 | 0.00 | 72 | 1012.6 |
| 20260504190206 | 19 | 86 | 3.2 | 12.9 | 0.00 | 0.00 | 0.00 | 72 | 1012.5 |
| 20260504185703 | 19 | 183 | 9.7 | 14.5 | 0.00 | 0.00 | 0.00 | 72 | 1012.6 |
| 20260504185159 | 18 | 132 | 3.2 | 12.9 | 0.00 | 0.00 | 0.00 | 73 | 1012.6 |
| 20260504184655 | 18 | 108 | 3.2 | 4.8 | 0.00 | 0.00 | 0.00 | 73 | 1012.7 |
| 20260504184151 | 18 | 122 | 9.7 | 12.9 | 0.00 | 0.00 | 0.00 | 73 | 1012.3 |
| 20260504183648 | 18 | 91 | 1.6 | 8.0 | 0.00 | 0.00 | 0.00 | 73 | 1012.7 |
| 20260504183145 | 18 | 70 | 1.6 | 8.0 | 0.00 | 0.00 | 0.00 | 73 | 1012.3 |
| 20260504182643 | 19 | 78 | 1.6 | 9.7 | 0.00 | 0.00 | 0.00 | 73 | 1012.3 |
| 20260504182140 | 19 | 94 | 4.8 | 9.7 | 0.00 | 0.00 | 0.00 | 71 | 1012.6 |
| 20260504181637 | 19 | 80 | 3.2 | 4.8 | 0.00 | 0.00 | 0.00 | 72 | 1012.4 |
| 20260504181135 | 18 | 116 | 6.4 | 9.7 | 0.00 | 0.00 | 0.00 | 74 | 1012.4 |
| 20260504180634 | 18 | 137 | 4.8 | 8.0 | 0.00 | 0.00 | 0.00 | 75 | 1012.5 |
| 20260504180132 | 18 | 105 | 4.8 | 9.7 | 0.00 | 0.00 | 0.00 | 75 | 1012.4 |
| 20260504175629 | 18 | 122 | 3.2 | 9.7 | 0.00 | 0.00 | 0.00 | 76 | 1012.7 |
| 20260504175125 | 18 | 89 | 0.0 | 4.8 | 0.00 | 0.00 | 0.00 | 74 | 1012.4 |
| 20260504174624 | 18 | 135 | 9.7 | 14.5 | 0.00 | 0.00 | 0.00 | 75 | 1012.7 |
| 20260504174120 | 18 | 83 | 3.2 | 8.0 | 0.00 | 0.00 | 0.00 | 74 | 1012.5 |
| 20260504173617 | 18 | 100 | 4.8 | 8.0 | 0.00 | 0.00 | 0.00 | 75 | 1012.3 |
| 20260504173115 | 18 | 159 | 8.0 | 14.5 | 0.00 | 0.00 | 0.00 | 76 | 1012.4 |
| 20260504172611 | 17 | 86 | 1.6 | 4.8 | 0.00 | 0.00 | 0.00 | 75 | 1012.6 |
| 20260504172108 | 17 | 130 | 4.8 | 9.7 | 0.00 | 0.00 | 0.00 | 77 | 1012.6 |
| 20260504171604 | 17 | 139 | 11.3 | 14.5 | 0.00 | 0.00 | 0.00 | 77 | 1012.7 |
| 20260504171101 | 17 | 115 | 4.8 | 9.7 | 0.00 | 0.00 | 0.00 | 76 | 1012.8 |
| 20260504170557 | 17 | 136 | 6.4 | 14.5 | 0.00 | 0.00 | 0.00 | 76 | 1012.5 |
| 20260504150941 | 14 | 353 | 8.0 | 14.5 | 0.00 | 0.00 | 0.00 | 84 | 1011.9 |
| 20260504150438 | 14 | 4 | 4.8 | 9.7 | 0.00 | 0.00 | 0.00 | 85 | 1012.1 |
| 20260504140904 | 13 | 355 | 4.8 | 9.7 | 0.00 | 0.00 | 0.00 | 86 | 1011.7 |
| 20260504140400 | 13 | 14 | 4.8 | 9.7 | 0.00 | 0.00 | 0.00 | 86 | 1011.4 |
| 20260504130325 | 13 | 48 | 3.2 | 8.0 | 0.00 | 0.00 | 0.00 | 85 | 1010.4 |
| 20260504120248 | 14 | 16 | 3.2 | 4.8 | 0.00 | 0.00 | 0.00 | 82 | 1009.2 |
| 20260504110716 | 15 | 50 | 3.2 | 9.7 | 0.00 | 0.00 | 0.00 | 77 | 1008.9 |
| 20260504110212 | 16 | 316 | 4.8 | 8.0 | 0.00 | 0.00 | 0.00 | 77 | 1008.4 |
| 20260504100131 | 17 | 0 | 9.7 | 22.5 | 0.00 | 0.00 | 0.00 | 72 | 1007.8 |
| 20260504081524 | 22 | 37 | 4.8 | 9.7 | 0.00 | 0.00 | 0.00 | 50 | 1007.7 |
| 20260504081019 | 21 | 351 | 3.2 | 4.8 | 0.00 | 0.00 | 0.00 | 50 | 1007.8 |
| 20260504080516 | 22 | 335 | 3.2 | 9.7 | 0.00 | 0.00 | 0.00 | 51 | 1007.8 |
| 20260504050328 | 25 | 18 | 3.2 | 8.0 | 0.00 | 0.00 | 0.00 | 44 | 1006.9 |
| 20260504045825 | 25 | 13 | 4.8 | 9.7 | 0.00 | 0.00 | 0.00 | 44 | 1006.8 |
| 20260504045320 | 25 | 9 | 9.7 | 14.5 | 0.00 | 0.00 | 0.00 | 44 | 1006.6 |
| 20260504044817 | 25 | 41 | 4.8 | 8.0 | 0.00 | 0.00 | 0.00 | 43 | 1006.8 |
| 20260504044315 | 25 | 67 | 1.6 | 9.7 | 0.00 | 0.00 | 0.00 | 43 | 1006.6 |
| 20260504043812 | 25 | 83 | 4.8 | 17.7 | 0.00 | 0.00 | 0.00 | 43 | 1006.7 |
| 20260504043309 | 25 | 345 | 4.8 | 8.0 | 0.00 | 0.00 | 0.00 | 44 | 1006.8 |
| 20260504042806 | 25 | 23 | 3.2 | 14.5 | 0.00 | 0.00 | 0.00 | 43 | 1006.7 |
| 20260504042304 | 25 | 139 | 3.2 | 4.8 | 0.00 | 0.00 | 0.00 | 43 | 1006.8 |
| 20260504041759 | 25 | 56 | 3.2 | 4.8 | 0.00 | 0.00 | 0.00 | 43 | 1006.6 |
| 20260504041255 | 25 | 45 | 3.2 | 8.0 | 0.00 | 0.00 | 0.00 | 43 | 1006.4 |
| 20260504040751 | 25 | 71 | 1.6 | 3.2 | 0.00 | 0.00 | 0.00 | 43 | 1006.3 |